weather.gov     
National Weather Service

Terminal Aerodrome Forecast
NWS Homepage
This page is being discontinued on March 12, 2014.
The same data is available at this site. Please update your bookmarks.
Thank you, and we apologize for the inconvenience.
Please send an email to SR-SRH.Webmaster@noaa.gov with any concerns.


Current Version
Previous Version:    01  02  03  04  05  06  07  08  09  10  11  12  13  14  15  16  17  18  19  20  21  22  23  24  25  26  27  28  29  30  
   31  32  33  34  35  
[Printable]
255
FTUS44 KSHV 301700
TAFGGG
TAF
KGGG 301721Z 3018/0118 15006KT P6SM SCT045 SCT100 SCT250
     FM010000 14005KT P6SM FEW070 SCT250
     FM011000 15004KT P6SM BKN015
      TEMPO 0110/0114 5SM BR
     FM011400 17005KT P6SM OVC015
     FM011500 18006KT P6SM BKN025
     FM011700 18010KT P6SM SCT035=


U.S. Dept. of Commerce
NOAA National Weather Service
1325 East West Highway
Silver Spring, MD 20910
E-mail: w-nws.webmaster@noaa.gov
Page last modified: May 16, 2007
NATIONAL WEATHER SERVICE: for Safety, for Work, for Fun - FOR LIFE